Weather Roundup
Issued by NWS Springfield, MO

Home | Current Version | Previous Version | Text Only | Print | Product List | Glossary On
Versions: 1 2 3 4 5 6 7 8 9 10 11 12 13 14 15 16 17 18 19 20 21 22 23 24 25 26 27 28 29 30 31 32 33 34 35 36 37 38 39 40 41 42 43 44 45 46 47 48 49 50
000
NZUS99 KSGF 130007
HRRSGF

HOURLY WEATHER
NATIONAL WEATHER SERVICE SPRINGFIELD MO
700 PM CDT SAT JUL 12 2014

......SGF CWA......

CITY           SKY/WX    TMP DP  RH WIND       PRES   REMARKS
SPRINGFIELD    SUNNY     87  69  54 SW10      30.06F HX  91
6HR MIN TEMP:  87; 6HR MAX TEMP:  91;

JOPLIN         SUNNY     89  62  40 S17       30.05F
6HR MIN TEMP:  89; 6HR MAX TEMP:  94;

WEST PLAINS    SUNNY     87  70  56 S6        30.10F HX  92
6HR MIN TEMP:  86; 6HR MAX TEMP:  90;

ROLLA          MOSUNNY   88  68  51 SW8       30.04F HX  91
6HR MIN TEMP:  88; 6HR MAX TEMP:  94;

OSAGE BEACH    MOSUNNY   90  70  51 SW7       30.03S HX  95

......SURROUNDING SGF CWA......

CITY           SKY/WX    TMP DP  RH WIND       PRES   REMARKS
CHANUTE        SUNNY     90  68  48 S12       30.01F HX  94
PARSONS        SUNNY     89  69  51 S8        30.03F HX  93
COFFEYVILLE    SUNNY     91  66  43 S14       30.01F HAZE    HX  93
EMPORIA        MOSUNNY   90  65  43 SW16G22   29.99F HX  92
GROVE OK       SUNNY     90  68  48 S8        30.06F HX  93
ROGERS AR      SUNNY     88  65  46 SW13      30.10F HX  90
SILOAM SPRINGS SUNNY     88  64  45 SW9       30.10S
HARRISON AR    SUNNY     87  68  52 SW6       30.11S HX  90
NEAR YELLVILLE   N/A     90  70  51 S3        30.08S HX  95

......KANSAS AND MISSOURI......

CITY           SKY/WX    TMP DP  RH WIND       PRES   REMARKS
KANSAS CTY INT MOSUNNY   88  71  57 SW13      29.95F HX  94
DOWNTOWN KC    SUNNY     92  67  43 SW16G24   29.94F HX  95
COLUMBIA       SUNNY     87  72  60 S13       30.00F HX  93
SEDALIA        SUNNY     89  72  56 SW9       30.00F HX  96
ST JOSEPH      SUNNY     89  72  56 SW12      29.91F HX  96
ST LOUIS       CLOUDY    93  69  45 S10       30.01F HX  98
SPIRIT OF STL  MOSUNNY   89  72  56 S6        29.99F HX  96
KIRKSVILLE     SUNNY     85  73  67 SW13      29.95F HX  91
WICHITA        MOSUNNY   91  65  41 S13       29.98F HX  93
TOPEKA         SUNNY     94  67  41 S12G23    29.94F HX  97
OLATHE         SUNNY     88  68  51 SW12G21   29.98F HX  91

......TENNESSEE......

CITY           SKY/WX    TMP DP  RH WIND       PRES   REMARKS
MEMPHIS        MOSUNNY   89  70  53 S7        30.07F HX  94
NASHVILLE      PTSUNNY   90  65  43 W3        30.09F HX  92

......ARKANSAS.......

CITY           SKY/WX    TMP DP  RH WIND       PRES   REMARKS
FAYETTEVILLE   SUNNY     86  70  58 S9        30.10F HX  90
FT SMITH       SUNNY     92  66  42 SW8       30.05F HX  94
LITTLE ROCK    MOSUNNY   89  71  55 S6        30.06F HX  95

......OKLAHOMA.......

CITY           SKY/WX    TMP DP  RH WIND       PRES   REMARKS
TULSA          SUNNY     92  65  40 S16       30.00F HX  94
PONCA CITY     SUNNY     94  57  28 S7G16     29.99S HX  92
MCALESTER      SUNNY     90  74  59 CALM      30.06F HX  99
OKLAHOMA CITY  SUNNY     91  55  29 S9        30.03F

......IOWA............

CITY           SKY/WX    TMP DP  RH WIND       PRES   REMARKS
DES MOINES     CLOUDY    81  72  74 N9        29.93R
QUAD CITIES    PTSUNNY   84  74  71 S6        29.89F HX  91

......ILLINOIS........

CITY           SKY/WX    TMP DP  RH WIND       PRES   REMARKS
QUINCY         SUNNY     87  73  62 S12       29.94F HX  94
CHICAGO        CLOUDY    79  70  74 SW3       29.93F



USA.gov is the U.S. government's official web portal to all federal, state and local government web resources and services.